Regional Weather Roundup
Issued by NWS Sterling, VA

Home | Current Version | Previous Version | Text Only | Print | Product List | Glossary Off
Versions: 1 2 3 4 5 6 7 8 9 10 11 12 13 14 15 16 17 18 19 20 21 22 23 24 25 26 27

000
ASUS41 KLWX 190711
RWRLWX

REGIONAL WEATHER ROUNDUP
NATIONAL WEATHER SERVICE BALTIMORE MD/WASHINGTON DC
200 AM EST MON FEB 19 2018

Note: "FAIR" indicates few or no clouds below 12,000 feet
with no significant weather and/or obstructions to visibility.
 TC=TEMPERATURE CELSIUS

 * =Non NWS site. Station does not report precipitation (e.g. rain,
    snow, etc.), thunder, or fog.

DCZ001-MDZ009-015-VAZ040>042-051-053>054-190800-
WASHINGTON METRO

CITY           SKY/WX    TMP DP  RH WIND       PRES   REMARKS
WASHINGTON NAT CLOUDY    40  34  79 S12       30.50S WCI  33
DULLES         CLOUDY    38  33  82 S5        30.48R WCI  34
ANDREWS AFB    FAIR      37  32  84 SE12      30.47F WCI  29
FT BELVOIR     FAIR      37  34  90 S3        30.49S
QUANTICO       MOCLDY    41  36  82 S12       30.51R WCI  34
COLLEGE PARK*  MOCLDY    32  30  93 CALM      30.49S
LEESBURG*      CLOUDY    39  34  81 S6        30.48R WCI  35
MANASSAS*      CLOUDY    38  34  85 S8        30.49R WCI  32
GAITHERSBURG*  CLOUDY    36  31  82 SE7       30.47S WCI  30

$$

MDZ006>007-011-014-190800-
BALTIMORE METRO

CITY           SKY/WX    TMP DP  RH WIND       PRES   REMARKS
BWI AIRPORT    MOCLDY    34  33  96 CALM      30.49S
MD SCIENCE CTR   N/A     37  32  82 MISG      30.50S
MARTIN STATE   FAIR      36  36 100 E3        30.52R
ANNAPOLIS      FAIR      40  37  89 S9        30.50F WCI  34
FORT MEADE*    FAIR      28  28 100 CALM      30.52S

$$

MDZ012-015-019>023-190800-
MARYLAND EASTERN SHORE

CITY           SKY/WX    TMP DP  RH WIND       PRES   REMARKS
OCEAN CITY     FAIR      40  36  86 VRB5      30.54S
SALISBURY      FAIR      31  29  92 E5        30.52F WCI  26
BAY BRIDGE AP* FAIR      37  34  87 S6        30.51R WCI  33
CAMBRIDGE*       N/A     34  32  93 SE8       30.52R WCI  27
EASTON*        FAIR      37  31  81 S6        30.54F WCI  32

$$

MDZ017>025-190800-
SOUTHERN MARYLAND

CITY           SKY/WX    TMP DP  RH WIND       PRES   REMARKS
PATUXENT RIVER FAIR      39  35  86 SE9       30.50F WCI  33
ST INIGOES     FAIR      40  31  70 VRB6      30.50F
LEONARDTOWN*   FAIR      36  32  87 SE5       30.52S WCI  32

$$

MDZ003>005-190800-
NORTH CENTRAL MARYLAND

CITY           SKY/WX    TMP DP  RH WIND       PRES   REMARKS
FREDERICK*     CLOUDY    32  32 100 CALM      30.50S
HAGERSTOWN APT FAIR      39  30  70 S10       30.42F WCI  32
WESTMINSTER*   CLOUDY    37  34  87 SE10      30.44F WCI  30

$$

MDZ501>502-190800-
WESTERN MARYLAND

CITY           SKY/WX    TMP DP  RH WIND       PRES   REMARKS
OAKLAND*         N/A     32  30  93 SE16G23   30.22R WCI  21
CUMBERLAND*    FAIR      32  30  93 NW3       30.40S

$$

VAZ025>031-190800-
SHENANDOAH VALLEY

CITY           SKY/WX    TMP DP  RH WIND       PRES   REMARKS
WINCHESTER*    FAIR      37  32  81 S12       30.41F WCI  30
FRONT ROYAL*   FAIR      41  34  75 S8        30.38F
LURAY*         FAIR      39  34  81 S8        30.39F WCI  34
NEW MARKET*    FAIR      29  29  96 CALM      30.38F
STAUNTON*      FAIR      41  34  76 S13       30.42S WCI  34
WAYNESBORO*    MOCLDY    40  34  80 S6        30.41R

$$

WVZ021-048>050-054>055-190800-
EASTERN WEST VIRGINIA PANHANDLE

CITY           SKY/WX    TMP DP  RH WIND       PRES   REMARKS
MARTINSBURG    FAIR      38  30  73 S8        30.41F WCI  32
PETERSBURG*    FAIR      28  27  94 CALM      30.34S

$$

VAZ036>039-050-190800-
CENTRAL FOOTHILLS

CITY           SKY/WX    TMP DP  RH WIND       PRES   REMARKS
CHARLOTTESVILL CLOUDY    42  35  76 S6        30.46F
CULPEPER*      CLOUDY    40  32  72 SE3       30.49S
ORANGE*        CLOUDY    37  32  81 CALM      30.48S
GORDONSVILLE*  CLOUDY    39  35  86 SW3       30.47F
WARRENTON*     CLOUDY    40  30  67 S3        30.47F

$$

VAZ055>057-190800-
NORTH AND CENTRAL PIEDMONT

CITY           SKY/WX    TMP DP  RH WIND       PRES   REMARKS
FREDERICKSBRG* FAIR      38  34  84 SE6       30.50R WCI  34
STAFFORD*      MOCLDY    34  33  99 CALM      30.53R

$$

NCZ024-NYZ072-PAZ021-071-VAZ022-071-190800-
OTHER REGIONAL OBSERVATIONS

CITY           SKY/WX    TMP DP  RH WIND       PRES   REMARKS
NEW YORK CITY  FAIR      37  24  59 VRB5      30.54S WCI  33
PHILADELPHIA   MOCLDY    34  26  72 E7        30.52R WCI  28
PITTSBURGH     CLOUDY    34  27  75 SE5       30.17S WCI  30
ROANOKE        CLOUDY    43  37  79 SE8       30.43S
RICHMOND       FAIR      37  33  85 SE5       30.50R WCI  33
RALEIGH        CLOUDY    46  34  62 E8        30.44S

$$

ANZ530>537-190800-
MARINE OBSERVATIONS

STATION/POSITION TIME  TEMP    WIND        PRES
                       AIR SEA DIR/SP/G
                 (UTC) (F)     (DEG/KT/KT) (MB)
THOMAS PT LIGHT  0700   39 38  180/ 12/ 14   N/A
BALT KEY BRIDGE  0648   39     160/  8/  9 1032.9F
COVE POINT       0648   39     180/ 14/ 15 1033.6F
LEWISETTA        0648   41 43  160/  7/  9 1033.0F
SOLOMONS ISLAND  0648   40 40  150/  8/ 10 1032.9F

$$





USA.gov is the U.S. government's official web portal to all federal, state and local government web resources and services.